{"data":{"norad_id":66806,"intl_designator":"2025-278R","name":"STARLINK-36069","alt_names":[],"object_type":"PAYLOAD","status":"ACTIVE","operator":null,"country":"US","launch_date":"2025-12-01","launch_site_code":"AFETR","launch_vehicle":null,"mission":null,"orbit_class":"UNKNOWN","rcs_meters":null,"size_class":null,"mass_kg":null,"dimensions":null,"purposes":["comms"],"wikipedia_slug":null,"has_3d_model":false,"image_url":null,"decayed_at":null,"tle_current":{"epoch":"2026-09-20T22:10:27.648768Z","epoch_age_seconds":50480,"freshness":"FRESH","line1":"1 66806U 25278R   26263.92393112  .00009685  00000+0  36097-3 0  9994","line2":"2 66806  43.0018  92.1320 0000994 246.5785 113.4963 15.27583685 45062","mean_motion":15.27583685,"eccentricity":9.94e-5,"inclination_deg":43.0018,"raan_deg":92.132,"arg_perigee_deg":246.5785,"mean_anomaly_deg":113.4963,"bstar":0.00036097,"rev_number":4506,"period_min":94.266521313364,"perigee_km":482.35606104502,"apogee_km":483.72006264731,"semimajor_km":6861.1750618462,"source":"CELESTRAK","updated_at":"2026-09-21T09:00:36.016406Z"}}}